Dodge City, KS

2:49 AM CDT on August 25, 2019 (GMT -0500)
Dodge City Regional

Weather History for KDDC - July, 2019

Change the Weather History Date:

Friday, July 19, 2019

  Actual Average Record
Temperature  
Mean Temperature 90 °F -  
Max Temperature 104 °F 92 °F 106 °F (1980)
Min Temperature 75 °F 67 °F 57 °F (1902)
Cooling Degree Days 24    
Growing Degree Days 40 (Base 50)    
Moisture  
Dew Point 64 °F    
Average Humidity 39    
Maximum Humidity 69    
Minimum Humidity 15    
Precipitation  
Precipitation 0.00 in - - ()
Sea Level Pressure  
Sea Level Pressure 29.73 in    
Wind  
Wind Speed 19 mph (South)    
Max Wind Speed 29 mph    
Max Gust Speed 40 mph    
Visibility 6 miles    
Events      
Averages and records for this station are not official NWS values.
T = Trace of Precipitation, MM = Missing Value Source: NWS Daily Summary

Daily Weather History Graph

Daily Weather History Graph

Search for Another Location

Airport or City:

Astronomy

Jul. 19, 2019 Rise Set
Actual Time 6:32 AM CDT 8:59 PM CDT
Civil Twilight 6:02 AM CDT 9:29 PM CDT
Nautical Twilight 5:25 AM CDT 10:06 PM CDT
Astronomical Twilight 4:44 AM CDT 10:47 PM CDT
Moon 11:00 PM CDT (7/19) 8:59 AM CDT (7/19)
Length of Visible Light 15h 26m
Length of Day
14h 26m
Waning Gibbous, 93% of the Moon is Illuminated
Jul 19
Waning Gibbous
Jul 24
Last Quarter
Jul 31
New
Aug 7
First Quarter
Aug 15
Full

Hourly Weather History & Observations

Time (CDT) Temp. Heat Index Dew Point Humidity Pressure Visibility Wind Dir Wind Speed Gust Speed Precip Events Conditions
12:52 AM 82.0 °F 84.9 °F 68.0 °F 62% 29.70 in 9.0 mi South 17.3 mph 26.5 mph N/A   Clear
1:52 AM 81.0 °F 83.8 °F 68.0 °F 65% 29.71 in 9.0 mi South 18.4 mph - N/A   Clear
2:52 AM 80.1 °F 82.3 °F 66.9 °F 64% 29.70 in 9.0 mi South 16.1 mph - N/A   Clear
3:52 AM 78.1 °F - 66.9 °F 68% 29.70 in 9.0 mi South 12.7 mph - N/A   Clear
4:52 AM 77.0 °F - 66.0 °F 69% 29.70 in 10.0 mi South 11.5 mph - N/A   Clear
5:52 AM 77.0 °F - 64.9 °F 66% 29.70 in 10.0 mi South 12.7 mph - N/A   Clear
6:52 AM 75.9 °F - 64.9 °F 69% 29.71 in 8.0 mi South 10.4 mph - N/A   Clear
7:52 AM 79.0 °F - 64.9 °F 62% 29.72 in 7.0 mi South 13.8 mph - N/A   Clear
8:52 AM 84.0 °F 85.8 °F 64.9 °F 53% 29.73 in 7.0 mi SSW 13.8 mph - N/A   Clear
9:52 AM 88.0 °F 89.3 °F 64.0 °F 45% 29.73 in 7.0 mi SSW 17.3 mph 26.5 mph N/A   Clear
10:52 AM 91.0 °F 91.9 °F 63.0 °F 39% 29.73 in 7.0 mi SSW 21.9 mph 29.9 mph N/A   Clear
11:52 AM 95.0 °F 97.0 °F 64.0 °F 36% 29.71 in 8.0 mi South 20.7 mph 29.9 mph N/A   Clear
12:48 PM 98.6 °F 100.0 °F 62.6 °F 30% 29.83 in 4.0 mi SSW 21.9 mph 31.1 mph N/A   Haze
12:52 PM 98.1 °F 99.6 °F 63.0 °F 31% 29.70 in 6.0 mi South 23.0 mph 31.1 mph N/A   Haze
1:20 PM 100.0 °F 101.8 °F 63.0 °F 29% 29.82 in 4.0 mi South 23.0 mph 32.2 mph N/A   Haze
1:37 PM 100.0 °F 101.8 °F 63.0 °F 29% 29.82 in 2.5 mi South 21.9 mph 31.1 mph N/A   Haze
1:44 PM 100.0 °F 101.8 °F 62.1 °F 29% 29.82 in 5.0 mi South 20.7 mph 32.2 mph N/A   Haze
1:52 PM 100.9 °F 103.3 °F 63.0 °F 29% 29.70 in 3.0 mi South 23.0 mph 33.4 mph N/A   Haze
2:35 PM 102.9 °F 105.5 °F 63.0 °F 27% 29.81 in 4.0 mi South 21.9 mph 32.2 mph N/A   Haze
2:52 PM 102.9 °F 104.2 °F 61.0 °F 25% 29.68 in 2.0 mi South 25.3 mph 36.8 mph N/A   Haze
3:02 PM 102.9 °F 104.8 °F 62.1 °F 26% 29.80 in 7.0 mi South 27.6 mph 40.3 mph N/A   Partly Cloudy
3:06 PM 102.9 °F 104.2 °F 61.0 °F 25% 29.80 in 1.8 mi South 25.3 mph 40.3 mph N/A   Haze
3:25 PM 102.9 °F 103.6 °F 60.1 °F 24% 29.79 in 3.0 mi South 26.5 mph 39.1 mph N/A   Haze
3:45 PM 104.0 °F 105.3 °F 60.1 °F 24% 29.79 in 1.8 mi South 28.8 mph 40.3 mph N/A   Haze
3:52 PM 104.0 °F 105.3 °F 60.1 °F 24% 29.67 in 2.5 mi South 26.5 mph 40.3 mph N/A   Haze
3:59 PM 104.0 °F 105.3 °F 61.0 °F 24% 29.79 in 4.0 mi South 27.6 mph 36.8 mph N/A   Haze
4:14 PM 102.9 °F 104.2 °F 61.0 °F 25% 29.79 in 2.0 mi South 26.5 mph 36.8 mph N/A   Haze
4:25 PM 102.9 °F 104.8 °F 62.1 °F 26% 29.79 in 4.0 mi South 25.3 mph 38.0 mph N/A   Haze
4:40 PM 102.9 °F 104.2 °F 61.0 °F 25% 29.78 in 2.0 mi South 26.5 mph 36.8 mph N/A   Haze
4:50 PM 102.2 °F 103.6 °F 60.8 °F 26% 29.78 in 6.0 mi South 21.9 mph 38.0 mph N/A   Haze
4:52 PM 102.9 °F 104.8 °F 62.1 °F 26% 29.66 in 5.0 mi South 26.5 mph 39.1 mph N/A   Haze
5:52 PM 100.0 °F 101.8 °F 62.1 °F 29% 29.65 in 7.0 mi South 28.8 mph 35.7 mph N/A   Clear
6:52 PM 98.1 °F 100.7 °F 64.0 °F 33% 29.65 in 7.0 mi South 21.9 mph 34.5 mph N/A   Clear
7:52 PM 93.9 °F 96.1 °F 64.9 °F 38% 29.66 in 8.0 mi South 19.6 mph 28.8 mph N/A   Clear
8:52 PM 89.1 °F 91.3 °F 66.0 °F 46% 29.67 in 6.0 mi SSE 15.0 mph - N/A   Haze
9:52 PM 86.0 °F 88.2 °F 66.0 °F 51% 29.68 in 7.0 mi SSE 17.3 mph - N/A   Clear
10:52 PM 84.9 °F 86.6 °F 64.9 °F 51% 29.70 in 8.0 mi SSE 19.6 mph 26.5 mph N/A   Clear
11:52 PM 82.9 °F 84.4 °F 64.0 °F 53% 29.70 in 9.0 mi SSE 16.1 mph - N/A   Clear